EN

Hourly Weather Abriaqui

Today, 5 December, Saturday

Time Temperature Precipitation Wind Pressure Humidity
00:00 +13°C° 0 mm 0 mps 599 mmHg 96%
01:00 +13°C° 0 mm 0 mps 599 mmHg 97%
02:00 +13°C° 0 mm 0 mps 599 mmHg 97%
03:00 +13°C° 0 mm 0 mps 599 mmHg 97%
04:00 +13°C° 0 mm 0 mps 599 mmHg 96%
05:00 +13°C° 0 mm 0 mps 599 mmHg 96%
06:00 +13°C° 0 mm 0 mps 600 mmHg 95%
07:00 +14°C° 0 mm 0 mps 600 mmHg 94%
08:00 +18°C° 0.1 mm 1 mps 601 mmHg 88%
09:00 +20°C° 0.1 mm 1 mps 602 mmHg 81%
10:00 +22°C° 0.1 mm 1 mps 603 mmHg 75%
11:00 +22°C° 0.5 mm 1 mps 603 mmHg 74%
12:00 +23°C° 0.5 mm 1 mps 602 mmHg 74%
13:00 +23°C° 0.5 mm 1 mps 602 mmHg 73%
14:00 +22°C° 0.9 mm 1 mps 601 mmHg 78%
15:00 +21°C° 0.9 mm 1 mps 600 mmHg 84%
16:00 +20°C° 0.9 mm 1 mps 600 mmHg 89%
17:00 +19°C° 0.7 mm 1 mps 599 mmHg 92%
18:00 +18°C° 0.7 mm 1 mps 599 mmHg 95%
19:00 +16°C° 0.7 mm 1 mps 599 mmHg 97%
20:00 +14°C° 0.1 mm 0 mps 599 mmHg 97%
21:00 +14°C° 0.1 mm 0 mps 600 mmHg 97%
22:00 +14°C° 0.1 mm 0 mps 600 mmHg 98%
23:00 +14°C° 0 mm 0 mps 600 mmHg 97%

Tomorrow, 6 December, Sunday

Time Temperature Precipitation Wind Pressure Humidity
00:00 +13°C° 0 mm 0 mps 599 mmHg 97%
01:00 +13°C° 0 mm 0 mps 599 mmHg 97%
02:00 +13°C° 0 mm 0 mps 599 mmHg 97%
03:00 +13°C° 0 mm 0 mps 598 mmHg 97%
04:00 +13°C° 0 mm 0 mps 598 mmHg 97%
05:00 +13°C° 0 mm 0 mps 599 mmHg 96%
06:00 +14°C° 0 mm 0 mps 599 mmHg 95%
07:00 +14°C° 0 mm 0 mps 600 mmHg 95%
08:00 +16°C° 0.1 mm 0 mps 600 mmHg 89%
09:00 +17°C° 0.1 mm 0 mps 601 mmHg 83%
10:00 +21°C° 0.1 mm 1 mps 602 mmHg 77%
11:00 +21°C° 1 mm 1 mps 602 mmHg 77%
12:00 +22°C° 1 mm 1 mps 601 mmHg 76%
13:00 +22°C° 1 mm 1 mps 601 mmHg 76%
14:00 +21°C° 1.3 mm 1 mps 600 mmHg 81%
15:00 +20°C° 1.3 mm 1 mps 600 mmHg 86%
16:00 +20°C° 1.3 mm 1 mps 599 mmHg 91%
17:00 +18°C° 0.8 mm 1 mps 599 mmHg 93%
18:00 +16°C° 0.8 mm 1 mps 599 mmHg 95%
19:00 +15°C° 0.8 mm 1 mps 598 mmHg 97%
20:00 +15°C° 0.2 mm 1 mps 599 mmHg 97%
21:00 +14°C° 0.2 mm 0 mps 599 mmHg 96%
22:00 +13°C° 0.2 mm 0 mps 599 mmHg 96%
23:00 +13°C° 0.1 mm 0 mps 599 mmHg 96%

Day after tomorrow, 7 December, Monday

Time Temperature Precipitation Wind Pressure Humidity
00:00 +13°C° 0.1 mm 0 mps 599 mmHg 96%
01:00 +13°C° 0.1 mm 0 mps 598 mmHg 96%
02:00 +13°C° 0.1 mm 0 mps 598 mmHg 96%
03:00 +13°C° 0.1 mm 0 mps 598 mmHg 96%
04:00 +14°C° 0.1 mm 1 mps 598 mmHg 96%
05:00 +13°C° 0.2 mm 0 mps 598 mmHg 96%
06:00 +13°C° 0.2 mm 0 mps 599 mmHg 96%
07:00 +14°C° 0.2 mm 0 mps 599 mmHg 95%
08:00 +15°C° 0 mm 0 mps 600 mmHg 89%
09:00 +17°C° 0 mm 0 mps 601 mmHg 83%
10:00 +20°C° 0 mm 1 mps 602 mmHg 78%
11:00 +21°C° 0.5 mm 1 mps 602 mmHg 77%
12:00 +21°C° 0.5 mm 1 mps 601 mmHg 76%
13:00 +22°C° 0.5 mm 1 mps 601 mmHg 75%
14:00 +21°C° 0.9 mm 1 mps 600 mmHg 81%
15:00 +20°C° 0.9 mm 1 mps 599 mmHg 86%
16:00 +19°C° 0.9 mm 1 mps 599 mmHg 92%
17:00 +18°C° 0.5 mm 1 mps 599 mmHg 94%
18:00 +16°C° 0.5 mm 1 mps 599 mmHg 96%
19:00 +15°C° 0.5 mm 1 mps 599 mmHg 98%
20:00 +14°C° 0.2 mm 0 mps 599 mmHg 97%
21:00 +14°C° 0.2 mm 0 mps 600 mmHg 97%
22:00 +14°C° 0.2 mm 0 mps 600 mmHg 96%
23:00 +13°C° 0.1 mm 0 mps 600 mmHg 96%

8 December, Tuesday

Time Temperature Precipitation Wind Pressure Humidity
00:00 +13°C° 0.1 mm 0 mps 600 mmHg 96%
01:00 +13°C° 0.1 mm 0 mps 599 mmHg 96%
02:00 +13°C° 0.2 mm 0 mps 599 mmHg 96%
03:00 +13°C° 0.2 mm 0 mps 599 mmHg 97%
04:00 +13°C° 0.2 mm 0 mps 599 mmHg 97%
05:00 +13°C° 0.5 mm 0 mps 599 mmHg 97%
06:00 +13°C° 0.5 mm 0 mps 600 mmHg 97%
07:00 +14°C° 0.5 mm 0 mps 600 mmHg 97%
08:00 +14°C° 0.4 mm 0 mps 601 mmHg 95%
09:00 +15°C° 0.4 mm 0 mps 602 mmHg 93%
10:00 +16°C° 0.4 mm 0 mps 602 mmHg 91%
11:00 +17°C° 0.5 mm 0 mps 602 mmHg 88%
12:00 +18°C° 0.5 mm 0 mps 601 mmHg 85%
13:00 +21°C° 0.5 mm 1 mps 601 mmHg 82%
14:00 +20°C° 1.3 mm 1 mps 601 mmHg 86%
15:00 +20°C° 1.3 mm 1 mps 600 mmHg 89%
16:00 +19°C° 1.3 mm 1 mps 600 mmHg 93%
17:00 +18°C° 1.1 mm 1 mps 599 mmHg 94%
18:00 +16°C° 1.1 mm 1 mps 599 mmHg 96%
19:00 +15°C° 1.1 mm 1 mps 599 mmHg 97%
20:00 +15°C° 0.5 mm 1 mps 600 mmHg 97%
21:00 +14°C° 0.5 mm 0 mps 600 mmHg 96%
22:00 +13°C° 0.5 mm 0 mps 600 mmHg 96%
23:00 +13°C° 0.1 mm 0 mps 600 mmHg 96%

9 December, Wednesday

Time Temperature Precipitation Wind Pressure Humidity
00:00 +13°C° 0.1 mm 0 mps 600 mmHg 96%
01:00 +13°C° 0.1 mm 0 mps 599 mmHg 96%
02:00 +12°C° 0 mm 0 mps 599 mmHg 96%
03:00 +12°C° 0 mm 0 mps 599 mmHg 96%
04:00 +12°C° 0 mm 0 mps 599 mmHg 96%
05:00 +13°C° 0 mm 0 mps 599 mmHg 96%
06:00 +13°C° 0 mm 0 mps 600 mmHg 96%
07:00 +13°C° 0 mm 0 mps 600 mmHg 95%
08:00 +15°C° 0.2 mm 0 mps 601 mmHg 90%
09:00 +17°C° 0.2 mm 0 mps 602 mmHg 85%
10:00 +19°C° 0.2 mm 0 mps 603 mmHg 80%
11:00 +19°C° 0.9 mm 0 mps 603 mmHg 82%
12:00 +21°C° 0.9 mm 1 mps 602 mmHg 83%
13:00 +21°C° 0.9 mm 1 mps 602 mmHg 85%
14:00 +20°C° 1.4 mm 1 mps 601 mmHg 88%
15:00 +20°C° 1.4 mm 1 mps 600 mmHg 91%
16:00 +19°C° 1.4 mm 1 mps 600 mmHg 94%
17:00 +18°C° 0.7 mm 1 mps 600 mmHg 95%
18:00 +16°C° 0.7 mm 1 mps 600 mmHg 96%
19:00 +15°C° 0.7 mm 1 mps 600 mmHg 98%
20:00 +14°C° 0.1 mm 0 mps 600 mmHg 98%
21:00 +14°C° 0.1 mm 0 mps 600 mmHg 97%
22:00 +13°C° 0.1 mm 0 mps 601 mmHg 97%
23:00 +13°C° 0 mm 0 mps 600 mmHg 97%

10 December, Thursday

Time Temperature Precipitation Wind Pressure Humidity
00:00 +13°C° 0 mm 0 mps 600 mmHg 97%
01:00 +13°C° 0 mm 0 mps 599 mmHg 97%
02:00 +12°C° 0 mm 0 mps 599 mmHg 97%
03:00 +12°C° 0 mm 0 mps 599 mmHg 97%
04:00 +12°C° 0 mm 0 mps 598 mmHg 97%
05:00 +12°C° 0 mm 0 mps 599 mmHg 96%
06:00 +13°C° 0 mm 0 mps 599 mmHg 95%
07:00 +13°C° 0 mm 0 mps 600 mmHg 95%
08:00 +15°C° 0.1 mm 0 mps 601 mmHg 87%
09:00 +17°C° 0.1 mm 0 mps 602 mmHg 79%
10:00 +21°C° 0.1 mm 1 mps 603 mmHg 72%
11:00 +21°C° 0.4 mm 1 mps 602 mmHg 71%
12:00 +22°C° 0.4 mm 1 mps 602 mmHg 70%
13:00 +22°C° 0.4 mm 1 mps 601 mmHg 69%
14:00 +21°C° 1 mm 1 mps 601 mmHg 76%
15:00 +20°C° 1 mm 1 mps 600 mmHg 83%
16:00 +19°C° 1 mm 1 mps 599 mmHg 91%
17:00 +18°C° 1.1 mm 1 mps 599 mmHg 93%
18:00 +16°C° 1.1 mm 1 mps 599 mmHg 95%
19:00 +15°C° 1.1 mm 0 mps 599 mmHg 97%
20:00 +14°C° 0.3 mm 0 mps 599 mmHg 97%
21:00 +14°C° 0.3 mm 0 mps 599 mmHg 97%
22:00 +14°C° 0.3 mm 0 mps 600 mmHg 96%
23:00 +13°C° 0 mm 0 mps 599 mmHg 96%
Show more